THORAD AGENA D DEB, 4653

Orbit data source: Space-Track

THORAD AGENA D DEB, 4653 is space debris in SSO originally from a launch on Wed, 08 Apr 1970 UTC launched from the Air Force Western Test Range (AFWTR). Debris objects in space refer to the collection of defunct objects orbiting the Earth. Examples of debris include non-operational satellites, rocket bodies, and fragments generated from explosions, collisions, or faulty payload assembly.

Loading next visibility...
Identifier
4653, 1970-025AM
Orbit
SSO
Last TLE update
9 hours ago
Origin
Manufacturer
Unknown
Mission
Spacecraft
Bus & Motor
Unknown
Mass
Unknown
Launch date (UTC)
1970-04-08 (55 years ago)
Launch vehicle
Unknown
Launch site
Air Force Western Test Range (AFWTR)
Object type
Payload
Rocket body
Debris
Shape & HBR
Unknown
Radar Cross Section
Small (<0.1 m²)

Expand to show TLE details & history

TLE from 9 hours ago
0 THORAD AGENA D DEB
1 04653U 70025AM  25191.62923142  .00003949  00000-0  88114-3 0  9999
2 04653 100.0011  71.0027 0012907 211.7881 148.2533 14.57520622817283
Epoch: 2025-07-10T15:06Z
TLE epoch observation values (Epoch: 2025-07-10T15:06:05.594Z)
Latitude
-0.00011°
Longitude
-84.31336°
Altitude
711.887 km
Speed
7.496 km/s
True Right ascension
04h 44m 00s
True Declination
0° 00' 00"
Sunlit
Object was in daylight at epoch
Visualization orbit readout
Latitude
31.95503°
Longitude
102.41335°
Altitude
701.117 km
Speed
7.511 km/s
Apparent Right ascension
20h 12m 51s
Apparent Declination
-2° 59' 11"
Sunlit
Object is in full shadow
Visualization observer readout
Local Sidereal Time
12:17:03
Azimuth
72.819° E
Elevation
-23.839°
Doppler factor
1
Orbital elements
Apogee altitude
707.501 km
Perigee altitude
689.233 km
Semi-major axis
7,076.504 km
Eccentricity
0.00129
Inclination
100.0011°
RAAN
71.0027°
Arg. of periapsis
211.7881°
True anomaly
Unknown
Mean anomaly
148.2533°
Eccentric anomaly
Unknown
Mean motion
3.64599 °/min
Orbital period
98.74 mins
BSTAR
0.00088114
Loading maneuver chart data...
Loading SW <> Apogee altitude chart data...

THORAD AGENA D DEB Visibility forecast

Observer location: undefined°, undefined°

Span
Click to sort rows by Start time (UTC) header in descending order
Start Az.
Max El. time (UTC)
Max El. Az.
Max El.
End time (UTC)
End Az.
9 mins2025-07-11 04:50:54.068Z19.214° NNE2025-07-11 04:54:54.068Z59.696° ENE42.948°2025-07-11 04:59:54.068Z190.174° SSW
7 mins2025-07-11 15:56:54.068Z167.526° S2025-07-11 15:59:54.068Z227.374° WSW44.745°2025-07-11 16:03:54.068Z342.604° N
|